This is the latest recevied weather packets stored in our database for station/object WA9NNN-10. If no packets are shown the sender has not sent any weather packets the latest 10 day(s).
| Time | Temp. | Humidity | Pressure | Rain* | Wind** | Luminosity | Snow |
|---|---|---|---|---|---|---|---|
| 1777997497 | 13.89° C | 42% | 1008.5 hPa | 0 mm | - | - | - |
| 1777997196 | 13.89° C | 42% | 1008.5 hPa | 0 mm | - | - | - |
| 1777996897 | 14.44° C | 41% | 1008.5 hPa | 0 mm | - | - | - |
| 1777996596 | 14.44° C | 41% | 1008.7 hPa | 0 mm | - | - | - |
| 1777996297 | 14.44° C | 45% | 1008.4 hPa | 0 mm | - | - | - |
| 1777995996 | 13.89° C | 44% | 1008.4 hPa | 0 mm | - | - | - |
| 1777995697 | 13.33° C | 45% | 1008.3 hPa | 0 mm | - | - | - |
| 1777995397 | 13.33° C | 50% | 1008.4 hPa | 0 mm | - | - | - |
| 1777995097 | 12.78° C | 52% | 1008.3 hPa | 0 mm | - | - | - |
| 1777994797 | 12.78° C | 53% | 1008.3 hPa | 0 mm | - | - | - |
| 1777994497 | 12.22° C | 55% | 1008.3 hPa | 0 mm | - | - | - |
| 1777994196 | 12.22° C | 55% | 1008.5 hPa | 0 mm | - | - | - |
| 1777993897 | 12.22° C | 57% | 1008.5 hPa | 0 mm | - | - | - |
| 1777993596 | 11.67° C | 60% | 1008.4 hPa | 0 mm | - | - | - |
| 1777993297 | 11.67° C | 62% | 1008.4 hPa | 0 mm | - | - | - |
| 1777992996 | 11.11° C | 63% | 1008.5 hPa | 0 mm | - | - | - |
| 1777992696 | 11.11° C | 62% | 1008.2 hPa | 0 mm | - | - | - |
| 1777992396 | 10.56° C | 63% | 1008.2 hPa | 0 mm | - | - | - |
| 1777992096 | 10.56° C | 67% | 1008.3 hPa | 0 mm | - | - | - |
| 1777991796 | 10.56° C | 71% | 1008.3 hPa | 0 mm | - | - | - |
| 1777991497 | 10.56° C | 73% | 1008.5 hPa | 0 mm | - | - | - |
| 1777991196 | 10.56° C | 75% | 1008.6 hPa | 0 mm | - | - | - |
| 1777990897 | 10.56° C | 76% | 1008.6 hPa | 0 mm | - | - | - |
| 1777990596 | 10.56° C | 77% | 1008.6 hPa | 0 mm | - | - | - |
| 1777989996 | 10° C | 78% | 1009.1 hPa | 0.25 mm | - | - | - |
* Rain latest hour (hover to see other rain measurements)
** Current wind speed in m/s (hover to see current wind gust speed)